This demonstration page uses our WeatherBlox Daily Observations layout. Learn more.

Left ArrowRight Arrow

44.31136, -96.79839

Hourly Observations for September 26, 2021

Temp ( °F °C ) Dew Point ( °F °C ) Humidity (%) Winds ( mph kmh ) Pressure ( in mb ) Visibility ( mi km ) Precip ( " mm )
12:56 am 00:56 Clear 52 11.1 45 7.2 77 77 SSE 3 6 29.85 1011 10 16 0.00 0.00
1:56 am 01:56 Clear 52 11.1 45 7.2 77 77 SE 6 9 29.84 1011 10 16 0.00 0.00
2:56 am 02:56 Clear 51 10.6 46 7.8 83 83 SE 8 13 29.82 1010 10 16 0.00 0.00
3:56 am 03:56 Clear 50 10 46 7.8 86 86 ESE 8 13 29.80 1009 10 16 0.00 0.00
4:56 am 04:56 Clear 51 10.6 46 7.8 83 83 SE 8 13 29.80 1009 10 16 0.00 0.00
5:56 am 05:56 Clear 51 10.6 46 7.8 83 83 SE 8 13 29.80 1009 10 16 0.00 0.00
6:56 am 06:56 Clear 51 10.6 46 7.8 83 83 SE 9 15 29.79 1009 10 16 0.00 0.00
7:56 am 07:56 Sunny 53 11.7 47 8.3 80 80 SSE 9 15 29.79 1009 10 16 0.00 0.00
8:56 am 08:56 Sunny 55 12.8 48 8.9 77 77 SSE 8 13 29.79 1009 10 16 0.00 0.00
9:56 am 09:56 Sunny 62 16.7 51 10.6 67 67 S 8 13 29.78 1008 10 16 0.00 0.00
10:56 am 10:56 Sunny 68 20 53 11.7 59 59 S 6 9 29.77 1008 10 16 0.00 0.00
11:56 am 11:56 Sunny 74 23.3 57 13.9 56 56 S 7 11 29.75 1007 10 16 0.00 0.00
12:56 pm 12:56 Sunny 78 25.6 56 13.3 47 47 SSE 9 15 29.72 1007 10 16 0.00 0.00
1:56 pm 13:56 Sunny 82 27.8 57 13.9 42 42 Calm 29.72 1006 10 16 0.00 0.00
2:56 pm 14:56 Sunny 86 30 57 13.9 37 37 S 6 9 29.69 1005 10 16 0.00 0.00
3:56 pm 15:56 Sunny 88 31.1 56 13.3 34 34 SW 9 15 29.68 1005 10 16 0.00 0.00
4:56 pm 16:56 Sunny 87 30.6 56 13.3 35 35 WSW 6 9 29.68 1005 9 14 0.00 0.00
5:56 pm 17:56 Sunny 85 29.4 56 13.3 37 37 WSW 7 11 29.69 1005 10 16 0.00 0.00
6:56 pm 18:56 Sunny 81 27.2 56 13.3 42 42 W 5 7 29.70 1006 10 16 0.00 0.00
7:56 pm 19:56 Clear 75 23.9 54 12.2 48 48 Calm 29.72 1006 10 16 0.00 0.00
8:56 pm 20:56 Clear 70 21.1 54 12.2 57 57 Calm 29.74 1007 10 16 0.00 0.00
9:56 pm 21:56 Clear 64 17.8 54 12.2 70 70 Calm 29.75 1008 10 16 0.00 0.00
10:56 pm 22:56 Clear 61 16.1 55 12.8 81 81 N 6 9 29.76 1008 8 13 0.00 0.00
11:56 pm 23:56 Clear 58 14.4 53 11.7 84 84 NW 3 6 29.77 1008 10 16 0.00 0.00

Powered by AerisWeather